Wetterdaten: Woche 11.12.17 - 17.12.17 (KW50)
Datum Zeit Temp. I. Temp. A. Feuchte I. Feuchte A. Luftdruck Regen Wind Richtung Sonnenschein UV Solar Taupunkt Windchill Windben
11.12.2017 00:00 22,6 C 2,3 C 61 % 93 % 988,6 hPa 0,0 l/m 16,6 km/h (3 Bft) S 0,00 h 0,0 UV-I 0 W/m 1,3 C -5,0 C 24,9 km/h (4 Bft)
11.12.2017 01:00 22,5 C 2,7 C 61 % 93 % 989,1 hPa 0,0 l/m 15,7 km/h (3 Bft) S 0,00 h 0,0 UV-I 0 W/m 1,7 C -3,9 C 23,1 km/h (4 Bft)
11.12.2017 02:00 22,4 C 3,2 C 62 % 93 % 989,2 hPa 0,0 l/m 16,6 km/h (3 Bft) S-SO 0,00 h 0,0 UV-I 0 W/m 2,2 C -3,9 C 23,9 km/h (4 Bft)
11.12.2017 03:00 22,3 C 3,5 C 62 % 92 % 989,0 hPa 0,0 l/m 16,2 km/h (3 Bft) S-SO 0,00 h 0,0 UV-I 0 W/m 2,4 C -3,3 C 25,1 km/h (4 Bft)
11.12.2017 04:00 22,3 C 3,8 C 60 % 91 % 988,8 hPa 0,0 l/m 12,5 km/h (3 Bft) S-SO 0,00 h 0,0 UV-I 0 W/m 2,6 C -0,7 C 19,1 km/h (3 Bft)
11.12.2017 05:00 22,3 C 3,9 C 60 % 91 % 989,9 hPa 0,0 l/m 8,9 km/h (2 Bft) S-SO 0,00 h 0,0 UV-I 0 W/m 2,5 C 1,6 C 14,0 km/h (3 Bft)
11.12.2017 06:00 22,4 C 3,8 C 61 % 92 % 989,9 hPa 0,0 l/m 3,5 km/h (1 Bft) S 0,00 h 0,0 UV-I 0 W/m 2,6 C 3,7 C 7,1 km/h (2 Bft)
11.12.2017 07:00 22,7 C 3,6 C 60 % 94 % 989,5 hPa 0,0 l/m 5,7 km/h (1 Bft) S-SO 0,00 h 0,0 UV-I 0 W/m 2,7 C 3,0 C 8,8 km/h (2 Bft)
11.12.2017 08:00 22,7 C 3,7 C 59 % 94 % 989,2 hPa 0,0 l/m 0,2 km/h (0 Bft) O 0,00 h 0,0 UV-I 13 W/m 2,8 C 3,7 C 0,4 km/h (0 Bft)
11.12.2017 09:00 22,4 C 3,6 C 51 % 94 % 989,0 hPa 0,0 l/m 0,0 km/h (0 Bft) N 0,00 h 0,0 UV-I 26 W/m 2,7 C 3,6 C 0,0 km/h (0 Bft)
11.12.2017 10:00 22,5 C 4,0 C 51 % 95 % 988,3 hPa 0,2 l/m 1,3 km/h (1 Bft) O-SO 0,00 h 0,0 UV-I 32 W/m 3,3 C 4,0 C 2,8 km/h (1 Bft)
11.12.2017 11:00 22,8 C 4,3 C 52 % 95 % 987,6 hPa 0,8 l/m 0,7 km/h (0 Bft) O 0,00 h 0,0 UV-I 31 W/m 3,5 C 4,3 C 1,4 km/h (1 Bft)
11.12.2017 12:00 22,8 C 4,7 C 53 % 96 % 986,4 hPa 0,4 l/m 0,9 km/h (0 Bft) O-NO 0,00 h 0,3 UV-I 53 W/m 4,1 C 4,7 C 2,0 km/h (1 Bft)
11.12.2017 13:00 22,9 C 5,1 C 53 % 96 % 985,3 hPa 0,0 l/m 0,0 km/h (0 Bft) N 0,00 h 0,0 UV-I 46 W/m 4,5 C 5,1 C 0,0 km/h (0 Bft)
11.12.2017 14:00 22,8 C 5,0 C 53 % 95 % 985,1 hPa 0,0 l/m 0,0 km/h (0 Bft) N 0,00 h 0,0 UV-I 20 W/m 4,3 C 5,0 C 0,0 km/h (0 Bft)
11.12.2017 15:00 22,8 C 4,9 C 54 % 94 % 984,7 hPa 0,0 l/m 4,2 km/h (1 Bft) O-NO 0,00 h 0,0 UV-I 8 W/m 4,1 C 4,3 C 7,9 km/h (2 Bft)
11.12.2017 16:00 22,8 C 4,4 C 54 % 91 % 984,7 hPa 0,0 l/m 2,1 km/h (1 Bft) O-NO 0,00 h 0,0 UV-I 0 W/m 3,1 C 4,4 C 4,8 km/h (1 Bft)
11.12.2017 17:00 22,7 C 4,1 C 54 % 92 % 985,6 hPa 0,0 l/m 0,1 km/h (0 Bft) O 0,00 h 0,0 UV-I 0 W/m 2,8 C 4,1 C 0,3 km/h (0 Bft)
11.12.2017 18:00 22,7 C 3,4 C 54 % 93 % 987,0 hPa 0,0 l/m 1,0 km/h (0 Bft) NW 0,00 h 0,0 UV-I 0 W/m 2,4 C 3,4 C 1,9 km/h (1 Bft)
11.12.2017 19:00 22,9 C 2,9 C 54 % 94 % 987,3 hPa 0,2 l/m 0,1 km/h (0 Bft) O-NO 0,00 h 0,0 UV-I 0 W/m 2,0 C 2,9 C 0,2 km/h (0 Bft)
11.12.2017 20:00 22,9 C 2,5 C 55 % 95 % 987,7 hPa 0,0 l/m 0,0 km/h (0 Bft) N 0,00 h 0,0 UV-I 0 W/m 1,8 C 2,5 C 0,0 km/h (0 Bft)
11.12.2017 21:00 22,9 C 2,3 C 57 % 95 % 989,0 hPa 0,0 l/m 0,0 km/h (0 Bft) N 0,00 h 0,0 UV-I 0 W/m 1,6 C 2,3 C 0,0 km/h (0 Bft)
11.12.2017 22:00 22,9 C 2,3 C 57 % 95 % 989,6 hPa 0,0 l/m 0,0 km/h (0 Bft) N 0,00 h 0,0 UV-I 0 W/m 1,6 C 2,3 C 0,0 km/h (0 Bft)
11.12.2017 23:00 22,9 C 2,9 C 57 % 96 % 990,3 hPa 0,0 l/m 0,2 km/h (0 Bft) S-SO 0,00 h 0,0 UV-I 0 W/m 2,3 C 2,9 C 0,8 km/h (0 Bft)
12.12.2017 00:00 22,8 C 3,8 C 58 % 96 % 991,0 hPa 0,2 l/m 4,0 km/h (1 Bft) S-SW 0,00 h 0,0 UV-I 0 W/m 3,2 C 3,4 C 7,9 km/h (2 Bft)
12.12.2017 01:00 22,7 C 3,9 C 59 % 96 % 991,9 hPa 0,8 l/m 8,2 km/h (2 Bft) S 0,00 h 0,0 UV-I 0 W/m 3,3 C 2,1 C 13,3 km/h (3 Bft)
12.12.2017 02:00 22,5 C 3,9 C 58 % 96 % 993,0 hPa 0,2 l/m 13,0 km/h (3 Bft) S-SO 0,00 h 0,0 UV-I 0 W/m 3,3 C -1,0 C 20,1 km/h (4 Bft)
12.12.2017 03:00 22,3 C 3,8 C 59 % 95 % 993,9 hPa 0,0 l/m 14,2 km/h (3 Bft) S-SO 0,00 h 0,0 UV-I 0 W/m 3,1 C -1,8 C 21,7 km/h (4 Bft)
12.12.2017 04:00 22,3 C 3,7 C 57 % 94 % 994,6 hPa 0,0 l/m 12,7 km/h (3 Bft) S-SO 0,00 h 0,0 UV-I 0 W/m 2,9 C -1,0 C 18,9 km/h (3 Bft)
12.12.2017 05:00 22,3 C 3,8 C 57 % 93 % 995,9 hPa 0,0 l/m 13,0 km/h (3 Bft) S-SO 0,00 h 0,0 UV-I 0 W/m 2,8 C -1,1 C 19,5 km/h (3 Bft)
12.12.2017 06:00 22,4 C 3,5 C 57 % 94 % 997,6 hPa 0,4 l/m 10,4 km/h (2 Bft) S 0,00 h 0,0 UV-I 0 W/m 2,6 C 0,2 C 16,6 km/h (3 Bft)
12.12.2017 07:00 22,5 C 2,3 C 57 % 89 % 999,9 hPa 0,0 l/m 15,3 km/h (3 Bft) S-SW 0,00 h 0,0 UV-I 0 W/m 0,8 C -4,1 C 24,9 km/h (4 Bft)
12.12.2017 08:00 22,5 C 1,5 C 57 % 88 % 1002,1 hPa 0,0 l/m 12,6 km/h (3 Bft) S-SW 0,00 h 0,0 UV-I 5 W/m -0,3 C -3,4 C 20,7 km/h (4 Bft)
12.12.2017 09:00 22,4 C 1,2 C 57 % 88 % 1003,9 hPa 0,0 l/m 14,2 km/h (3 Bft) SW 0,00 h 0,0 UV-I 14 W/m -0,6 C -4,8 C 23,2 km/h (4 Bft)
12.12.2017 10:00 22,4 C 1,1 C 57 % 88 % 1005,6 hPa 0,0 l/m 10,5 km/h (2 Bft) SW 0,00 h 0,0 UV-I 28 W/m -0,7 C -2,4 C 17,4 km/h (3 Bft)
12.12.2017 11:00 22,4 C 1,3 C 57 % 87 % 1006,5 hPa 0,0 l/m 13,1 km/h (3 Bft) SW 0,00 h 0,5 UV-I 45 W/m -0,6 C -4,1 C 21,3 km/h (4 Bft)
12.12.2017 12:00 22,5 C 1,4 C 57 % 86 % 1007,8 hPa 0,0 l/m 11,8 km/h (2 Bft) W-SW 0,00 h 0,5 UV-I 43 W/m -0,7 C -3,1 C 19,2 km/h (3 Bft)
12.12.2017 13:00 22,6 C 1,6 C 57 % 84 % 1008,7 hPa 0,0 l/m 10,2 km/h (2 Bft) SW 0,03 h 0,5 UV-I 88 W/m -0,7 C -1,6 C 17,1 km/h (3 Bft)
12.12.2017 14:00 22,7 C 1,7 C 57 % 83 % 1009,8 hPa 0,0 l/m 9,0 km/h (2 Bft) SW 0,00 h 0,0 UV-I 48 W/m -0,8 C -0,8 C 15,9 km/h (3 Bft)
12.12.2017 15:00 22,7 C 1,5 C 58 % 82 % 1010,9 hPa 0,0 l/m 9,1 km/h (2 Bft) SW 0,00 h 0,0 UV-I 22 W/m -1,2 C -0,9 C 15,0 km/h (3 Bft)
12.12.2017 16:00 22,6 C 1,4 C 58 % 81 % 1012,2 hPa 0,0 l/m 8,3 km/h (2 Bft) SW 0,00 h 0,0 UV-I 0 W/m -1,5 C -0,6 C 13,6 km/h (3 Bft)
12.12.2017 17:00 22,7 C 1,3 C 59 % 83 % 1012,8 hPa 0,0 l/m 6,8 km/h (2 Bft) SW 0,00 h 0,0 UV-I 0 W/m -1,3 C 0,3 C 11,6 km/h (2 Bft)
12.12.2017 18:00 22,7 C 1,2 C 58 % 85 % 1013,7 hPa 0,0 l/m 6,8 km/h (2 Bft) S-SW 0,00 h 0,0 UV-I 0 W/m -1,1 C 0,3 C 11,2 km/h (2 Bft)
12.12.2017 19:00 22,9 C 1,2 C 57 % 86 % 1014,7 hPa 0,0 l/m 6,2 km/h (2 Bft) S-SW 0,00 h 0,0 UV-I 0 W/m -0,9 C 0,6 C 10,7 km/h (2 Bft)
12.12.2017 20:00 22,8 C 1,1 C 58 % 86 % 1015,6 hPa 0,0 l/m 4,8 km/h (1 Bft) S-SW 0,00 h 0,0 UV-I 0 W/m -0,9 C 0,8 C 8,6 km/h (2 Bft)
12.12.2017 21:00 22,8 C 0,9 C 58 % 86 % 1016,2 hPa 0,0 l/m 5,7 km/h (1 Bft) SW 0,00 h 0,0 UV-I 0 W/m -1,1 C 0,3 C 9,8 km/h (2 Bft)
12.12.2017 22:00 22,9 C 0,6 C 58 % 87 % 1016,8 hPa 0,0 l/m 4,9 km/h (1 Bft) SW 0,00 h 0,0 UV-I 0 W/m -1,3 C 0,4 C 8,2 km/h (2 Bft)
12.12.2017 23:00 22,8 C -0,2 C 59 % 88 % 1017,2 hPa 0,0 l/m 5,3 km/h (1 Bft) S 0,00 h 0,0 UV-I 0 W/m -2,0 C -0,4 C 8,0 km/h (2 Bft)
13.12.2017 00:00 22,7 C -0,7 C 59 % 91 % 1017,4 hPa 0,0 l/m 4,2 km/h (1 Bft) S 0,00 h 0,0 UV-I 0 W/m -2,0 C -0,7 C 6,6 km/h (2 Bft)
13.12.2017 01:00 22,5 C -0,7 C 60 % 91 % 1017,7 hPa 0,0 l/m 4,9 km/h (1 Bft) S 0,00 h 0,0 UV-I 0 W/m -2,0 C -0,8 C 7,5 km/h (2 Bft)
13.12.2017 02:00 22,3 C -0,6 C 61 % 91 % 1018,0 hPa 0,0 l/m 4,3 km/h (1 Bft) S-SW 0,00 h 0,0 UV-I 0 W/m -1,9 C -0,7 C 7,3 km/h (2 Bft)
13.12.2017 03:00 22,1 C -0,6 C 61 % 90 % 1018,0 hPa 0,0 l/m 6,4 km/h (2 Bft) S-SW 0,00 h 0,0 UV-I 0 W/m -2,0 C -1,4 C 10,6 km/h (2 Bft)
13.12.2017 04:00 21,5 C -0,6 C 61 % 91 % 1018,1 hPa 0,0 l/m 7,6 km/h (2 Bft) S-SW 0,00 h 0,0 UV-I 0 W/m -1,9 C -2,1 C 12,3 km/h (3 Bft)
13.12.2017 05:00 21,4 C -0,6 C 62 % 90 % 1017,9 hPa 0,0 l/m 5,7 km/h (1 Bft) S 0,00 h 0,0 UV-I 0 W/m -2,0 C -1,2 C 8,4 km/h (2 Bft)
13.12.2017 06:00 22,0 C -0,5 C 60 % 91 % 1017,8 hPa 0,0 l/m 7,2 km/h (2 Bft) S 0,00 h 0,0 UV-I 0 W/m -1,8 C -1,6 C 10,4 km/h (2 Bft)
13.12.2017 07:00 22,2 C -0,6 C 59 % 91 % 1017,6 hPa 0,0 l/m 7,0 km/h (2 Bft) S-SO 0,00 h 0,0 UV-I 0 W/m -1,9 C -1,6 C 10,4 km/h (2 Bft)
13.12.2017 08:00 22,3 C -0,7 C 59 % 91 % 1017,4 hPa 0,0 l/m 6,2 km/h (2 Bft) S-SO 0,00 h 0,0 UV-I 26 W/m -2,0 C -1,2 C 9,3 km/h (2 Bft)
13.12.2017 09:00 22,4 C -0,2 C 58 % 89 % 1017,0 hPa 0,0 l/m 8,9 km/h (2 Bft) S-SO 0,00 h 0,0 UV-I 51 W/m -1,9 C -2,7 C 12,9 km/h (3 Bft)
13.12.2017 10:00 22,3 C 0,2 C 55 % 88 % 1016,4 hPa 0,0 l/m 11,7 km/h (2 Bft) S-SO 0,32 h 0,6 UV-I 139 W/m -1,6 C -4,4 C 17,3 km/h (3 Bft)
13.12.2017 11:00 22,5 C 1,8 C 56 % 82 % 1015,3 hPa 0,0 l/m 11,0 km/h (2 Bft) S 1,00 h 0,9 UV-I 334 W/m -1,0 C -2,1 C 16,1 km/h (3 Bft)
13.12.2017 12:00 23,0 C 2,6 C 55 % 78 % 1013,7 hPa 0,0 l/m 9,3 km/h (2 Bft) S-SO 1,00 h 0,8 UV-I 288 W/m -1,0 C -0,0 C 14,9 km/h (3 Bft)
13.12.2017 13:00 23,3 C 2,5 C 55 % 76 % 1012,0 hPa 0,0 l/m 10,1 km/h (2 Bft) S-SO 0,65 h 0,7 UV-I 176 W/m -1,4 C -0,6 C 15,5 km/h (3 Bft)
13.12.2017 14:00 23,2 C 2,3 C 56 % 74 % 1010,7 hPa 0,0 l/m 13,1 km/h (3 Bft) S-SO 0,02 h 0,5 UV-I 111 W/m -1,8 C -2,9 C 19,6 km/h (3 Bft)
13.12.2017 15:00 22,9 C 1,7 C 53 % 76 % 1009,3 hPa 0,0 l/m 11,0 km/h (2 Bft) S-SO 0,00 h 0,0 UV-I 32 W/m -2,1 C -2,1 C 16,4 km/h (3 Bft)
13.12.2017 16:00 22,5 C 1,3 C 51 % 76 % 1008,2 hPa 0,0 l/m 13,2 km/h (3 Bft) S-SO 0,00 h 0,0 UV-I 5 W/m -2,5 C -4,2 C 19,5 km/h (3 Bft)
13.12.2017 17:00 22,3 C 1,2 C 51 % 75 % 1006,6 hPa 0,0 l/m 14,3 km/h (3 Bft) S-SO 0,00 h 0,0 UV-I 0 W/m -2,7 C -5,0 C 21,3 km/h (4 Bft)
13.12.2017 18:00 22,3 C 1,1 C 53 % 78 % 1005,6 hPa 0,0 l/m 14,2 km/h (3 Bft) S 0,00 h 0,0 UV-I 0 W/m -2,3 C -4,9 C 21,6 km/h (4 Bft)
13.12.2017 19:00 22,2 C 0,1 C 53 % 91 % 1004,8 hPa 0,2 l/m 13,5 km/h (3 Bft) S 0,00 h 0,0 UV-I 0 W/m -1,2 C -5,7 C 20,9 km/h (4 Bft)
13.12.2017 20:00 22,3 C -0,1 C 54 % 95 % 1003,5 hPa 0,4 l/m 11,9 km/h (2 Bft) S 0,00 h 0,0 UV-I 0 W/m -0,9 C -5,0 C 17,8 km/h (3 Bft)
13.12.2017 21:00 22,3 C 0,1 C 55 % 95 % 1002,0 hPa 0,2 l/m 15,3 km/h (3 Bft) S-SO 0,00 h 0,0 UV-I 0 W/m -0,6 C -6,8 C 22,8 km/h (4 Bft)
13.12.2017 22:00 22,3 C 0,5 C 55 % 95 % 1000,8 hPa 0,2 l/m 12,5 km/h (3 Bft) S-SO 0,00 h 0,0 UV-I 0 W/m -0,2 C -4,6 C 18,5 km/h (3 Bft)
13.12.2017 23:00 22,3 C 0,9 C 55 % 95 % 998,8 hPa 0,0 l/m 9,8 km/h (2 Bft) S-SO 0,00 h 0,0 UV-I 0 W/m 0,2 C -2,2 C 14,6 km/h (3 Bft)
14.12.2017 00:00 22,3 C 1,2 C 56 % 95 % 997,1 hPa 0,2 l/m 12,6 km/h (3 Bft) S-SO 0,00 h 0,0 UV-I 0 W/m 0,5 C -3,9 C 18,9 km/h (3 Bft)
14.12.2017 01:00 22,2 C 1,1 C 58 % 95 % 995,5 hPa 1,2 l/m 12,7 km/h (3 Bft) S-SO 0,00 h 0,0 UV-I 0 W/m 0,4 C -4,0 C 19,1 km/h (3 Bft)
14.12.2017 02:00 22,1 C 1,2 C 59 % 96 % 995,5 hPa 0,8 l/m 14,1 km/h (3 Bft) S 0,00 h 0,0 UV-I 0 W/m 0,7 C -4,8 C 22,0 km/h (4 Bft)
14.12.2017 03:00 22,0 C 1,2 C 59 % 96 % 995,6 hPa 1,0 l/m 13,0 km/h (3 Bft) S 0,00 h 0,0 UV-I 0 W/m 0,6 C -4,2 C 19,8 km/h (4 Bft)
14.12.2017 04:00 21,9 C 1,8 C 57 % 96 % 995,3 hPa 0,0 l/m 12,8 km/h (3 Bft) S 0,00 h 0,0 UV-I 0 W/m 1,2 C -3,3 C 19,2 km/h (3 Bft)
14.12.2017 05:00 21,8 C 2,3 C 56 % 96 % 994,8 hPa 0,0 l/m 13,9 km/h (3 Bft) S 0,00 h 0,0 UV-I 0 W/m 1,8 C -3,4 C 21,1 km/h (4 Bft)
14.12.2017 06:00 21,8 C 2,6 C 57 % 96 % 994,0 hPa 0,2 l/m 10,8 km/h (2 Bft) S 0,00 h 0,0 UV-I 0 W/m 2,0 C -0,8 C 16,8 km/h (3 Bft)
14.12.2017 07:00 22,0 C 2,9 C 56 % 96 % 993,8 hPa 0,6 l/m 14,9 km/h (3 Bft) S 0,00 h 0,0 UV-I 0 W/m 2,2 C -3,1 C 23,9 km/h (4 Bft)
14.12.2017 08:00 22,2 C 2,7 C 58 % 88 % 995,6 hPa 0,0 l/m 19,4 km/h (3 Bft) W-SW 0,00 h 0,0 UV-I 13 W/m 0,8 C -5,7 C 32,5 km/h (5 Bft)
14.12.2017 09:00 22,4 C 2,1 C 57 % 82 % 997,5 hPa 0,0 l/m 19,1 km/h (3 Bft) W-SW 0,00 h 0,0 UV-I 49 W/m -0,6 C -6,2 C 29,9 km/h (5 Bft)
14.12.2017 10:00 22,4 C 2,4 C 55 % 78 % 998,7 hPa 0,2 l/m 20,7 km/h (4 Bft) W-SW 0,02 h 0,5 UV-I 86 W/m -0,9 C -6,6 C 32,8 km/h (5 Bft)
14.12.2017 11:00 22,3 C 2,8 C 53 % 77 % 999,3 hPa 0,0 l/m 18,7 km/h (3 Bft) W-SW 0,08 h 0,6 UV-I 107 W/m -0,7 C -5,2 C 29,5 km/h (5 Bft)
14.12.2017 12:00 22,3 C 2,8 C 52 % 80 % 999,7 hPa 0,0 l/m 13,6 km/h (3 Bft) SW 0,00 h 0,5 UV-I 58 W/m -0,2 C -2,6 C 22,7 km/h (4 Bft)
14.12.2017 13:00 22,3 C 3,0 C 52 % 82 % 999,5 hPa 0,0 l/m 12,1 km/h (2 Bft) SW 0,00 h 0,5 UV-I 53 W/m 0,2 C -1,4 C 19,9 km/h (4 Bft)
14.12.2017 14:00 22,4 C 3,3 C 51 % 77 % 999,5 hPa 0,0 l/m 13,0 km/h (3 Bft) S-SW 0,00 h 0,0 UV-I 47 W/m -0,2 C -1,6 C 20,9 km/h (4 Bft)
14.12.2017 15:00 22,4 C 3,2 C 51 % 77 % 999,5 hPa 0,0 l/m 9,4 km/h (2 Bft) S 0,00 h 0,0 UV-I 9 W/m -0,4 C 0,6 C 15,1 km/h (3 Bft)
14.12.2017 16:00 22,4 C 3,0 C 50 % 79 % 999,0 hPa 0,0 l/m 10,2 km/h (2 Bft) S 0,00 h 0,0 UV-I 0 W/m -0,3 C -0,2 C 15,7 km/h (3 Bft)
14.12.2017 17:00 22,3 C 2,9 C 51 % 80 % 998,2 hPa 0,2 l/m 11,7 km/h (2 Bft) S 0,00 h 0,0 UV-I 0 W/m -0,3 C -1,4 C 17,9 km/h (3 Bft)
14.12.2017 18:00 22,5 C 2,6 C 53 % 82 % 997,7 hPa 0,0 l/m 15,3 km/h (3 Bft) S-SO 0,00 h 0,0 UV-I 0 W/m -0,1 C -3,8 C 22,7 km/h (4 Bft)
14.12.2017 19:00 22,5 C 2,4 C 55 % 84 % 997,1 hPa 0,0 l/m 13,5 km/h (3 Bft) S 0,00 h 0,0 UV-I 0 W/m -0,0 C -3,0 C 20,0 km/h (4 Bft)
14.12.2017 20:00 22,4 C 2,3 C 55 % 86 % 996,8 hPa 0,0 l/m 13,0 km/h (3 Bft) S-SO 0,00 h 0,0 UV-I 0 W/m 0,1 C -2,9 C 19,5 km/h (3 Bft)
14.12.2017 21:00 22,5 C 2,2 C 55 % 87 % 996,1 hPa 0,0 l/m 13,0 km/h (3 Bft) S-SO 0,00 h 0,0 UV-I 0 W/m 0,3 C -3,0 C 19,3 km/h (3 Bft)
14.12.2017 22:00 22,5 C 2,2 C 56 % 89 % 996,0 hPa 0,0 l/m 11,6 km/h (2 Bft) S-SO 0,00 h 0,0 UV-I 0 W/m 0,6 C -2,0 C 17,5 km/h (3 Bft)
14.12.2017 23:00 22,5 C 2,3 C 57 % 89 % 995,6 hPa 0,0 l/m 10,0 km/h (2 Bft) S-SO 0,00 h 0,0 UV-I 0 W/m 0,6 C -0,8 C 15,1 km/h (3 Bft)
15.12.2017 00:00 22,5 C 1,6 C 57 % 92 % 995,0 hPa 0,0 l/m 8,1 km/h (2 Bft) S-SO 0,00 h 0,0 UV-I 0 W/m 0,5 C -0,1 C 12,4 km/h (3 Bft)
15.12.2017 01:00 22,3 C 1,6 C 58 % 94 % 994,3 hPa 0,2 l/m 7,6 km/h (2 Bft) S-SO 0,00 h 0,0 UV-I 0 W/m 0,7 C 0,2 C 11,4 km/h (2 Bft)
15.12.2017 02:00 22,3 C 1,4 C 58 % 95 % 993,8 hPa 0,2 l/m 6,8 km/h (2 Bft) S-SO 0,00 h 0,0 UV-I 0 W/m 0,7 C 0,6 C 10,8 km/h (2 Bft)
15.12.2017 03:00 22,2 C 1,9 C 59 % 95 % 993,1 hPa 0,0 l/m 6,3 km/h (2 Bft) S-SO 0,00 h 0,0 UV-I 0 W/m 1,2 C 1,3 C 10,6 km/h (2 Bft)
15.12.2017 04:00 22,1 C 2,1 C 59 % 95 % 993,1 hPa 0,4 l/m 6,4 km/h (2 Bft) S-SO 0,00 h 0,0 UV-I 0 W/m 1,4 C 1,4 C 10,0 km/h (2 Bft)
15.12.2017 05:00 22,1 C 1,1 C 59 % 95 % 992,8 hPa 2,4 l/m 5,5 km/h (1 Bft) S-SO 0,00 h 0,0 UV-I 0 W/m 0,4 C 0,8 C 8,8 km/h (2 Bft)
15.12.2017 06:00 22,1 C 0,8 C 59 % 96 % 993,4 hPa 1,2 l/m 6,6 km/h (2 Bft) S 0,00 h 0,0 UV-I 0 W/m 0,2 C -0,1 C 10,9 km/h (2 Bft)
15.12.2017 07:00 22,3 C 0,8 C 59 % 96 % 994,8 hPa 0,4 l/m 8,3 km/h (2 Bft) W-SW 0,00 h 0,0 UV-I 0 W/m 0,2 C -1,3 C 14,3 km/h (3 Bft)
15.12.2017 08:00 22,6 C 0,9 C 58 % 96 % 996,3 hPa 0,0 l/m 10,2 km/h (2 Bft) W-SW 0,00 h 0,0 UV-I 4 W/m 0,3 C -2,5 C 16,2 km/h (3 Bft)
15.12.2017 09:00 22,7 C 1,0 C 59 % 95 % 997,7 hPa 0,0 l/m 7,7 km/h (2 Bft) SW 0,00 h 0,0 UV-I 10 W/m 0,2 C -0,6 C 13,5 km/h (3 Bft)
15.12.2017 10:00 22,7 C 1,2 C 57 % 93 % 998,4 hPa 0,0 l/m 8,9 km/h (2 Bft) W-SW 0,00 h 0,5 UV-I 47 W/m 0,2 C -1,3 C 15,0 km/h (3 Bft)
15.12.2017 11:00 22,9 C 1,6 C 56 % 91 % 998,9 hPa 0,0 l/m 4,7 km/h (1 Bft) SW 0,13 h 0,6 UV-I 96 W/m 0,4 C 1,3 C 9,1 km/h (2 Bft)
15.12.2017 12:00 23,0 C 1,6 C 55 % 91 % 999,0 hPa 0,0 l/m 2,4 km/h (1 Bft) W-SW 0,05 h 0,6 UV-I 103 W/m 0,3 C 1,6 C 5,2 km/h (1 Bft)
15.12.2017 13:00 22,9 C 1,5 C 55 % 91 % 999,2 hPa 0,0 l/m 1,4 km/h (1 Bft) W-SW 0,02 h 0,5 UV-I 75 W/m 0,2 C 1,5 C 2,9 km/h (1 Bft)
15.12.2017 14:00 22,8 C 1,4 C 55 % 92 % 999,1 hPa 0,0 l/m 0,6 km/h (0 Bft) S-SO 0,00 h 0,5 UV-I 53 W/m 0,3 C 1,4 C 1,3 km/h (1 Bft)
15.12.2017 15:00 22,8 C 1,5 C 55 % 93 % 999,3 hPa 0,2 l/m 0,2 km/h (0 Bft) O-SO 0,00 h 0,0 UV-I 16 W/m 0,5 C 1,5 C 1,1 km/h (1 Bft)
15.12.2017 16:00 22,6 C 1,2 C 54 % 93 % 999,3 hPa 0,2 l/m 1,3 km/h (1 Bft) SO 0,00 h 0,0 UV-I 0 W/m 0,2 C 1,2 C 2,9 km/h (1 Bft)
15.12.2017 17:00 22,6 C 1,2 C 55 % 95 % 999,4 hPa 0,0 l/m 0,9 km/h (0 Bft) S-SO 0,00 h 0,0 UV-I 0 W/m 0,5 C 1,2 C 2,0 km/h (1 Bft)
15.12.2017 18:00 22,7 C 1,2 C 57 % 95 % 999,8 hPa 0,8 l/m 3,9 km/h (1 Bft) S 0,00 h 0,0 UV-I 0 W/m 0,4 C 0,9 C 6,8 km/h (2 Bft)
15.12.2017 19:00 22,8 C 0,9 C 58 % 95 % 1000,1 hPa 0,0 l/m 5,3 km/h (1 Bft) S-SW 0,00 h 0,0 UV-I 0 W/m 0,2 C 0,4 C 9,0 km/h (2 Bft)
15.12.2017 20:00 22,8 C 0,9 C 59 % 95 % 1000,5 hPa 0,0 l/m 3,0 km/h (1 Bft) SW 0,00 h 0,0 UV-I 0 W/m 0,2 C 0,9 C 5,6 km/h (1 Bft)
15.12.2017 21:00 22,8 C 0,9 C 59 % 96 % 1000,9 hPa 0,0 l/m 4,1 km/h (1 Bft) SW 0,00 h 0,0 UV-I 0 W/m 0,3 C 0,8 C 7,5 km/h (2 Bft)
15.12.2017 22:00 22,8 C 0,9 C 59 % 96 % 1001,2 hPa 0,0 l/m 3,0 km/h (1 Bft) W-SW 0,00 h 0,0 UV-I 0 W/m 0,3 C 0,9 C 6,0 km/h (2 Bft)
15.12.2017 23:00 22,9 C 0,9 C 60 % 96 % 1001,7 hPa 0,0 l/m 1,0 km/h (0 Bft) S 0,00 h 0,0 UV-I 0 W/m 0,3 C 0,9 C 1,9 km/h (1 Bft)
16.12.2017 00:00 22,8 C 0,9 C 60 % 96 % 1002,1 hPa 0,0 l/m 0,8 km/h (0 Bft) S-SW 0,00 h 0,0 UV-I 0 W/m 0,3 C 0,9 C 1,6 km/h (1 Bft)
16.12.2017 01:00 22,7 C 0,9 C 60 % 96 % 1002,3 hPa 0,0 l/m 0,3 km/h (0 Bft) SW 0,00 h 0,0 UV-I 0 W/m 0,3 C 0,9 C 1,0 km/h (0 Bft)
16.12.2017 02:00 22,6 C 0,8 C 60 % 96 % 1002,4 hPa 0,0 l/m 0,0 km/h (0 Bft) N 0,00 h 0,0 UV-I 0 W/m 0,2 C 0,8 C 0,0 km/h (0 Bft)
16.12.2017 03:00 22,6 C 0,6 C 60 % 96 % 1002,6 hPa 0,0 l/m 0,0 km/h (0 Bft) N 0,00 h 0,0 UV-I 0 W/m 0,1 C 0,6 C 0,0 km/h (0 Bft)
16.12.2017 04:00 22,5 C 0,1 C 60 % 96 % 1003,1 hPa 0,0 l/m 0,0 km/h (0 Bft) N 0,00 h 0,0 UV-I 0 W/m -0,5 C 0,1 C 0,0 km/h (0 Bft)
16.12.2017 05:00 22,4 C 0,1 C 60 % 96 % 1003,8 hPa 0,0 l/m 0,1 km/h (0 Bft) NW 0,00 h 0,0 UV-I 0 W/m -0,4 C 0,1 C 0,3 km/h (0 Bft)
16.12.2017 06:00 22,5 C 0,2 C 60 % 96 % 1004,4 hPa 0,0 l/m 0,1 km/h (0 Bft) S-SW 0,00 h 0,0 UV-I 0 W/m -0,3 C 0,2 C 0,3 km/h (0 Bft)
16.12.2017 07:00 22,7 C 0,2 C 60 % 96 % 1004,9 hPa 0,0 l/m 0,0 km/h (0 Bft) N 0,00 h 0,0 UV-I 0 W/m -0,3 C 0,2 C 0,0 km/h (0 Bft)
16.12.2017 08:00 22,8 C 0,2 C 60 % 96 % 1005,7 hPa 0,0 l/m 0,0 km/h (0 Bft) N 0,00 h 0,0 UV-I 16 W/m -0,4 C 0,2 C 0,0 km/h (0 Bft)
16.12.2017 09:00 22,9 C 0,5 C 60 % 96 % 1006,5 hPa 0,0 l/m 0,0 km/h (0 Bft) N 0,00 h 0,0 UV-I 52 W/m -0,0 C 0,5 C 0,0 km/h (0 Bft)
16.12.2017 10:00 23,3 C 1,1 C 58 % 94 % 1007,2 hPa 0,0 l/m 0,0 km/h (0 Bft) N 0,00 h 0,5 UV-I 101 W/m 0,3 C 1,1 C 0,0 km/h (0 Bft)
16.12.2017 11:00 23,4 C 1,6 C 53 % 91 % 1007,8 hPa 0,0 l/m 0,0 km/h (0 Bft) N 0,43 h 0,7 UV-I 151 W/m 0,3 C 1,6 C 0,0 km/h (0 Bft)
16.12.2017 12:00 23,6 C 1,8 C 52 % 89 % 1008,3 hPa 0,0 l/m 0,8 km/h (0 Bft) NW 0,18 h 0,6 UV-I 117 W/m 0,2 C 1,8 C 1,8 km/h (1 Bft)
16.12.2017 13:00 23,3 C 1,7 C 51 % 88 % 1009,0 hPa 0,0 l/m 4,9 km/h (1 Bft) W-NW 0,00 h 0,5 UV-I 75 W/m 0,0 C 1,3 C 8,3 km/h (2 Bft)
16.12.2017 14:00 23,0 C 1,8 C 48 % 89 % 1009,3 hPa 0,0 l/m 0,0 km/h (0 Bft) NW 0,10 h 0,5 UV-I 86 W/m 0,1 C 1,8 C 0,1 km/h (0 Bft)
16.12.2017 15:00 22,7 C 1,5 C 48 % 88 % 1010,2 hPa 0,0 l/m 1,3 km/h (1 Bft) W-SW 0,00 h 0,0 UV-I 15 W/m -0,2 C 1,5 C 3,5 km/h (1 Bft)
16.12.2017 16:00 22,6 C 1,0 C 50 % 90 % 1011,1 hPa 0,0 l/m 3,0 km/h (1 Bft) W-SW 0,00 h 0,0 UV-I 0 W/m -0,4 C 1,0 C 5,9 km/h (2 Bft)
16.12.2017 17:00 22,6 C 0,8 C 52 % 92 % 1011,9 hPa 0,0 l/m 2,0 km/h (1 Bft) W-SW 0,00 h 0,0 UV-I 0 W/m -0,3 C 0,8 C 4,9 km/h (1 Bft)
16.12.2017 18:00 22,6 C 0,7 C 54 % 93 % 1012,7 hPa 0,0 l/m 1,7 km/h (1 Bft) W 0,00 h 0,0 UV-I 0 W/m -0,3 C 0,7 C 4,0 km/h (1 Bft)
16.12.2017 19:00 22,8 C 0,6 C 54 % 93 % 1013,3 hPa 0,0 l/m 2,8 km/h (1 Bft) W-SW 0,00 h 0,0 UV-I 0 W/m -0,4 C 0,5 C 6,0 km/h (2 Bft)
16.12.2017 20:00 22,8 C 0,4 C 55 % 94 % 1014,0 hPa 0,0 l/m 4,0 km/h (1 Bft) W-SW 0,00 h 0,0 UV-I 0 W/m -0,4 C 0,3 C 7,8 km/h (2 Bft)
16.12.2017 21:00 22,8 C 0,5 C 55 % 95 % 1014,4 hPa 0,0 l/m 4,5 km/h (1 Bft) W-SW 0,00 h 0,0 UV-I 0 W/m -0,3 C 0,4 C 8,5 km/h (2 Bft)
16.12.2017 22:00 22,8 C 0,6 C 56 % 94 % 1014,8 hPa 0,0 l/m 3,7 km/h (1 Bft) W-SW 0,00 h 0,0 UV-I 0 W/m -0,3 C 0,6 C 7,0 km/h (2 Bft)
16.12.2017 23:00 22,8 C 0,6 C 56 % 94 % 1015,3 hPa 0,0 l/m 3,8 km/h (1 Bft) W-SW 0,00 h 0,0 UV-I 0 W/m -0,3 C 0,6 C 6,9 km/h (2 Bft)
17.12.2017 00:00 22,7 C 0,6 C 57 % 94 % 1015,3 hPa 0,0 l/m 4,9 km/h (1 Bft) W-SW 0,00 h 0,0 UV-I 0 W/m -0,3 C 0,4 C 8,6 km/h (2 Bft)
17.12.2017 01:00 22,5 C 0,5 C 58 % 95 % 1015,7 hPa 0,0 l/m 5,7 km/h (1 Bft) W-SW 0,00 h 0,0 UV-I 0 W/m -0,2 C -0,0 C 10,2 km/h (2 Bft)
17.12.2017 02:00 22,4 C 0,4 C 59 % 94 % 1016,4 hPa 0,0 l/m 6,4 km/h (2 Bft) W-SW 0,00 h 0,0 UV-I 0 W/m -0,4 C -0,5 C 10,9 km/h (2 Bft)
17.12.2017 03:00 22,3 C 0,4 C 59 % 93 % 1016,6 hPa 0,0 l/m 5,1 km/h (1 Bft) W-SW 0,00 h 0,0 UV-I 0 W/m -0,6 C -0,1 C 9,1 km/h (2 Bft)
17.12.2017 04:00 22,2 C 0,3 C 60 % 94 % 1017,0 hPa 0,0 l/m 4,4 km/h (1 Bft) SW 0,00 h 0,0 UV-I 0 W/m -0,5 C 0,2 C 8,2 km/h (2 Bft)
17.12.2017 05:00 22,2 C 0,3 C 60 % 95 % 1017,3 hPa 0,0 l/m 5,8 km/h (2 Bft) W-SW 0,00 h 0,0 UV-I 0 W/m -0,5 C -0,4 C 10,2 km/h (2 Bft)
17.12.2017 06:00 22,2 C 0,1 C 59 % 95 % 1017,8 hPa 0,0 l/m 3,3 km/h (1 Bft) W-SW 0,00 h 0,0 UV-I 0 W/m -0,6 C 0,1 C 6,1 km/h (2 Bft)
17.12.2017 07:00 22,5 C -0,1 C 59 % 95 % 1018,3 hPa 0,0 l/m 1,9 km/h (1 Bft) W-SW 0,00 h 0,0 UV-I 0 W/m -0,8 C -0,1 C 4,1 km/h (1 Bft)
17.12.2017 08:00 22,8 C -0,1 C 58 % 96 % 1018,8 hPa 0,0 l/m 2,2 km/h (1 Bft) SW 0,00 h 0,0 UV-I 7 W/m -0,7 C -0,1 C 4,3 km/h (1 Bft)
17.12.2017 09:00 22,9 C 0,2 C 57 % 96 % 1019,5 hPa 0,2 l/m 3,4 km/h (1 Bft) W-SW 0,00 h 0,0 UV-I 23 W/m -0,4 C 0,2 C 6,9 km/h (2 Bft)
17.12.2017 10:00 23,1 C 0,6 C 57 % 95 % 1020,1 hPa 0,0 l/m 2,5 km/h (1 Bft) W-SW 0,00 h 0,5 UV-I 63 W/m -0,2 C 0,6 C 5,7 km/h (1 Bft)
17.12.2017 11:00 23,2 C 1,0 C 57 % 93 % 1020,3 hPa 0,0 l/m 3,7 km/h (1 Bft) W-SW 0,13 h 0,6 UV-I 118 W/m -0,0 C 0,9 C 7,3 km/h (2 Bft)
17.12.2017 12:00 23,2 C 1,2 C 56 % 90 % 1020,2 hPa 0,0 l/m 6,9 km/h (2 Bft) W 0,00 h 0,5 UV-I 93 W/m -0,2 C 0,2 C 11,5 km/h (2 Bft)
17.12.2017 13:00 23,1 C 1,2 C 55 % 90 % 1020,3 hPa 0,0 l/m 6,7 km/h (2 Bft) W 0,12 h 0,6 UV-I 105 W/m -0,2 C 0,2 C 11,5 km/h (2 Bft)
17.12.2017 14:00 23,0 C 0,8 C 53 % 92 % 1020,5 hPa 0,0 l/m 5,6 km/h (1 Bft) W-SW 0,00 h 0,0 UV-I 68 W/m -0,3 C 0,4 C 9,3 km/h (2 Bft)
17.12.2017 15:00 22,8 C 0,5 C 52 % 93 % 1021,0 hPa 0,0 l/m 5,9 km/h (2 Bft) W-SW 0,00 h 0,0 UV-I 27 W/m -0,5 C -0,1 C 10,0 km/h (2 Bft)
17.12.2017 16:00 22,6 C 0,0 C 51 % 94 % 1021,6 hPa 0,0 l/m 5,6 km/h (1 Bft) W 0,00 h 0,0 UV-I 0 W/m -0,9 C -0,6 C 9,4 km/h (2 Bft)
17.12.2017 17:00 22,6 C -0,3 C 53 % 94 % 1022,4 hPa 0,0 l/m 2,9 km/h (1 Bft) W 0,00 h 0,0 UV-I 0 W/m -1,1 C -0,4 C 5,5 km/h (1 Bft)
17.12.2017 18:00 22,7 C -0,4 C 54 % 95 % 1023,0 hPa 0,0 l/m 2,1 km/h (1 Bft) W 0,00 h 0,0 UV-I 0 W/m -1,1 C -0,4 C 4,0 km/h (1 Bft)
17.12.2017 19:00 22,8 C -0,3 C 54 % 95 % 1023,6 hPa 0,8 l/m 4,5 km/h (1 Bft) NW 0,00 h 0,0 UV-I 0 W/m -1,0 C -0,5 C 8,4 km/h (2 Bft)
17.12.2017 20:00 22,8 C -0,5 C 54 % 95 % 1024,0 hPa 1,6 l/m 3,9 km/h (1 Bft) NW 0,00 h 0,0 UV-I 0 W/m -1,2 C -0,6 C 6,9 km/h (2 Bft)
17.12.2017 21:00 22,8 C -0,7 C 55 % 95 % 1024,3 hPa 0,2 l/m 0,9 km/h (0 Bft) NW 0,00 h 0,0 UV-I 0 W/m -1,4 C -0,7 C 1,9 km/h (1 Bft)
17.12.2017 22:00 22,7 C -1,1 C 55 % 95 % 1024,5 hPa 0,0 l/m 0,9 km/h (0 Bft) O-SO 0,00 h 0,0 UV-I 0 W/m -1,8 C -1,1 C 2,0 km/h (1 Bft)
17.12.2017 23:00 22,7 C -1,3 C 56 % 95 % 1024,8 hPa 0,0 l/m 0,4 km/h (0 Bft) SO 0,00 h 0,0 UV-I 0 W/m -2,0 C -1,3 C 0,6 km/h (0 Bft)
Min-Datum _ 13.12.17 17.12.17 16.12.17 13.12.17 11.12.17 - 11.12.17 - - - - 13.12.17 14.12.17 11.12.17
_ Min-Zeit 05:27 23:48 14:11 13:19 15:43 - 06:18 - - - - 16:53 09:03 06:18
Minimum _ 21,3 C -1,4 C 46 % 74 % 984,1 hPa - 0,0 km/h (0 Bft) - - - - -2,9 C -11,6 C 0,0 km/h (0 Bft)
Max-Datum _ 16.12.17 11.12.17 11.12.17 11.12.17 17.12.17 15.12.17 14.12.17 - 13.12.17 13.12.17 13.12.17 11.12.17 11.12.17 14.12.17
_ Max-Zeit 12:06 13:29 03:11 23:54 23:23 05:00 09:03 - 12:43 11:20 11:41 13:30 13:30 08:56
Maximum _ 23,7 C 5,2 C 63 % 97 % 1025,0 hPa 2,4 l/m 33,8 km/h
W-SW (5 Bft)
- 0,03 h 0,9 UV-I 401 W/m 4,6 C 5,2 C 57,9 km/h
W-SW (7 Bft)
Durchschnitt _ 22,6 C 1,5 C 56 % 91 % 1004,0 hPa #17,4 l/m 6,8 km/h (2 Bft) S #4:17 h 0,6 UV-I 64 W/m 0,2 C -0,5 C 11,0 km/h (2 Bft)